User: anonymous   Login
Location: Unspecified
(0.0000°N, 0.0000°E)
Time: 06:53:18
(UTC+00:00)
Language:

Kosmos-1506 - Orbit

View from above orbital plane
View from above orbital plane
View from above satellite
View from above satellite

Ground track
Ground track

The orbit data is extracted from the following two-line orbital elements,

1 14450U 83108A   19083.06030909  .00000009  00000-0 -59669-5 0  9992
2 14450  82.9276  76.7130 0042698 184.8803 237.1673 13.76246937594482
Epoch (UTC): 24 March 2019 01:26:50
Eccentricity: 0.0042698
inclination: 82.9276°
perigee height: 946 km
apogee height: 1008 km
right ascension of ascending node: 76.7130°
argument of perigee: 184.8803°
revolutions per day: 13.76246937
mean anomaly at epoch: 237.1673°
orbit number at epoch: 59448

The dashed part of the orbit path shows where the satellite is in the earth's shadow,  

DLR